Location: Kalberh�ni
(46.4610°N, 7.2453°E)
Time: 05:38:59
(UTC+00:00)

Cosmos 2333 Rocket - Pass Details

Date: 29 October 2021
Orbit: 837 x 865 km, 70.8° (Epoch: 05 December)

Event Time Altitude Azimuth Distance (km) Brightness Sun altitude
Rises 17:19:06 0° 182° (S) 3,384 5.5 -10.6°
Reaches altitude 10° 17:21:39 10° 175° (S) 2,458 4.7 -11.1°
Maximum altitude 17:26:53 40° 107° (ESE) 1,225 2.6 -12.0°
Drops below altitude 10° 17:32:10 10° 40° (NE) 2,491 4.2 -12.9°
Enters shadow 17:33:22 - 36° (NE) 2,920 4.6 -13.1°
